IRIDIUM 33 DEB, 33860

Orbit data source: Space-Track

IRIDIUM 33 DEB, 33860 is space debris in LEO originally from a launch on Sun, 14 Sep 1997 UTC launched from the Tyuratam Missile And Space Complex (TTMTR). The debris from Iridium 33, an American commercial communications satellite, has been tracked extensively since its accidental collision with the defunct Russian satellite Cosmos 2251 in 2009. This event, occurring at high speed in low Earth orbit (LEO), generated thousands of pieces of space debris, significantly increasing the risk of further collisions. The Iridium 33 debris cloud has impacted space traffic management and orbital debris mitigation strategies, making it a subject of ongoing study in space situational awareness.

Loading next visibility...
Identifier
33860, 1997-051AD
Orbit
LEO
Country
Flag of USUS
Related business
Manufacturer
Unknown
Mission
Spacecraft
Bus & Motor
Unknown
Mass
Unknown
Launch date (UTC)
1997-09-14 (29 years ago)
Launch vehicle
Unknown
Launch site
Tyuratam Missile And Space Complex (TTMTR)
Object type
Payload
Rocket body
Debris
Shape & HBR
Unknown shape, 0.1 m
Radar Cross Section
Medium (>0.1 m² and <1 m²)

Expand to show TLE details & history
Last TLE update: 17 hours ago

TLE from 17 hours ago
0 IRIDIUM 33 DEB
1 33860U 97051AD  26208.67761946  .00005794  00000-0  94862-3 0  9993
2 33860  86.3813 286.4881 0005649 268.7342 243.7735 14.70637218920544
Epoch: 2026-07-27T16:15Z
TLE epoch observation values (Epoch: 2026-07-27T16:15:46.321Z)
Latitude
27.53089°
Longitude
-84.69157°
Altitude
664.334 km
Speed
7.527 km/s
True Right ascension
06h 58m 26s
True Declination
27° 23' 18"
Sunlit
Object was in daylight at epoch
Visualization orbit readout
Latitude
Unknown
Longitude
Unknown
Altitude
Unknown
Speed
Unknown
Apparent Right ascension
Unknown
Apparent Declination
Unknown
Sunlit
N/A
Visualization observer readout
Local Sidereal Time
22:59:58
Azimuth
Unknown
Elevation
Unknown
Doppler factor
Unknown
Orbital elements
Apogee altitude
659.922 km
Perigee altitude
651.975 km
Semi-major axis
7,034.085 km
Eccentricity
0.00056
Inclination
86.3813°
RAAN
286.4881°
Arg. of periapsis
268.7342°
True anomaly
243.71545°
Mean anomaly
243.7735°
Eccentric anomaly
243.74447°
Mean motion
3.67902 °/min
Orbital period
97.85 mins
BSTAR
0.00094862
Loading maneuver chart data...
Computing Atmospheric mass density...

Documentation

Showing up to 5 results
|